星链-30819 (STARLINK-30819 )

导读 | 豆包AI

STARLINK-30819是美国SpaceX公司星链(Starlink)星座的一员,于2023年10月30日发射升空。星链项目旨在构建全球卫星互联网星座,为全球各地提供低延迟宽带互联网服务,该卫星加入后进一步扩充了星链星座规模,推动其全球覆盖服务能力提升。

基本信息
目录编号:
58179
目录名称:
STARLINK-30819
国际标识:
2023-167E
轨道中心:
EARTH
卫星名称:
星链-30819
卫星全名:
星链-30819 (STARLINK-30819 )
卫星状态:
在轨 (已飞行913 天)
发射日期:
2023-10-30 UTC
国别 :
美国 (US)
星等 :
--
轨道信息
数据来源 国际轨道数据
星历时间: 2026-04-30T14:30:45+0800
13小时前
查看轨道信息
半长轴: 6861.182km
偏心率: 0.0001156
轨道倾角: 42.999°
近地点辐角 274.653°
升交点赤经 212.112°
平近点角 85.419°
近地点: 482.251km
远地点: 483.839km
周期: 94.267分钟
每日圈数: 15.275816
详细信息
固有亮度:
5
最大亮度:
0.3
卫星平台:
Starlink v2.0 mini
覆盖范围:
全球
运营商:
太空探索技术公司
运营商所在国:
美国
制造商(研发单位):
太空探索技术公司
制造商所在国:
美国
使用方式:
暂无
卫星简介
星链(Starlink)计划是由太空探索技术公司(SpaceX)提出的一个巨型低轨卫星互联网星座项目,计划在2019年至2024年间在太空搭建由约1.2万颗卫星组成的“星链”网络,其中1584颗将部署在地球上空550千米处的近地轨道,并从2020年开始工作。该卫星仍在工作。
2D轨道图
3D轨道图
轨道高度分析图
轨道倾角分析图
轨道综合分析图
查看轨道综合分析图